contact:dominique.lefevre@mio.osupytheas.fr, maurice.libes@osupytheas.fr, didier.mallarino@osupytheas.fr
Project:EMSO http://www.emso-fr.org/EMSO-France
Depth: 2436.0 m
Title:EMSO Ligure Ouest : Data MII capteur MICROCAT
DateTime_Computer,Latitude,Longitude,Temperature,Conductivity,Pressure,DateTime_Instrument
DateTime_Computer,Latitude,Longitude,degC,S m-1,dbar,DateTime_Instrument
2020-04-20T00:00:08Z,42.805,6.029,13.2986,4.59982,2469.96,2020-4-20T02:00:48Z
2020-04-20T00:03:11Z,42.805,6.029,13.2974,4.59989,2469.923,2020-4-20T02:03:51Z
2020-04-20T00:06:14Z,42.805,6.029,13.2982,4.59994,2469.97,2020-4-20T02:06:54Z
2020-04-20T00:09:17Z,42.805,6.029,13.2987,4.60001,2469.96,2020-4-20T02:09:57Z
2020-04-20T00:12:21Z,42.805,6.029,13.3009,4.60013,2469.97,2020-4-20T02:13:01Z
2020-04-20T00:15:24Z,42.805,6.029,13.2992,4.59978,2469.9,2020-4-20T02:16:04Z
2020-04-20T00:18:27Z,42.805,6.029,13.2985,4.59982,2469.947,2020-4-20T02:19:07Z
2020-04-20T00:21:30Z,42.805,6.029,13.2977,4.59992,2469.947,2020-4-20T02:22:10Z
2020-04-20T00:24:33Z,42.805,6.029,13.2985,4.60005,2469.937,2020-4-20T02:25:13Z
2020-04-20T00:27:37Z,42.805,6.029,13.3006,4.60011,2469.923,2020-4-20T02:28:17Z
2020-04-20T00:30:40Z,42.805,6.029,13.2993,4.59999,2469.923,2020-4-20T02:31:20Z
2020-04-20T00:33:43Z,42.805,6.029,13.2980,4.60003,2469.923,2020-4-20T02:34:23Z
2020-04-20T00:36:46Z,42.805,6.029,13.2994,4.59994,2469.923,2020-4-20T02:37:26Z
2020-04-20T00:39:50Z,42.805,6.029,13.2977,4.60003,2469.937,2020-4-20T02:40:30Z
2020-04-20T00:42:53Z,42.805,6.029,13.2983,4.59989,2469.9,2020-4-20T02:43:33Z
2020-04-20T00:45:56Z,42.805,6.029,13.2974,4.59982,2469.947,2020-4-20T02:46:36Z
2020-04-20T00:48:59Z,42.805,6.029,13.2985,4.59988,2469.937,2020-4-20T02:49:39Z
2020-04-20T00:52:03Z,42.805,6.029,13.2983,4.59986,2469.947,2020-4-20T02:52:43Z
2020-04-20T00:55:06Z,42.805,6.029,13.2977,4.59993,2469.96,2020-4-20T02:55:46Z
2020-04-20T00:58:09Z,42.805,6.029,13.2985,4.60006,2469.937,2020-4-20T02:58:49Z
2020-04-20T01:01:13Z,42.805,6.029,13.2991,4.60028,2469.937,2020-4-20T03:01:53Z
2020-04-20T01:04:16Z,42.805,6.029,13.2973,4.59993,2469.984,2020-4-20T03:04:56Z
2020-04-20T01:07:19Z,42.805,6.029,13.2991,4.59981,2469.96,2020-4-20T03:07:59Z
2020-04-20T01:10:23Z,42.805,6.029,13.2980,4.59996,2469.947,2020-4-20T03:11:02Z
2020-04-20T01:13:26Z,42.805,6.029,13.2990,4.59993,2469.947,2020-4-20T03:14:06Z
2020-04-20T01:16:29Z,42.805,6.029,13.2991,4.59993,2469.96,2020-4-20T03:17:09Z
2020-04-20T01:19:32Z,42.805,6.029,13.2982,4.59988,2469.947,2020-4-20T03:20:12Z
2020-04-20T01:22:36Z,42.805,6.029,13.2989,4.59981,2469.923,2020-4-20T03:23:15Z
2020-04-20T01:25:39Z,42.805,6.029,13.2983,4.59990,2469.96,2020-4-20T03:26:19Z
2020-04-20T01:28:42Z,42.805,6.029,13.2974,4.59986,2469.993,2020-4-20T03:29:22Z
2020-04-20T01:31:45Z,42.805,6.029,13.2983,4.60001,2469.97,2020-4-20T03:32:25Z
2020-04-20T01:34:49Z,42.805,6.029,13.2994,4.60016,2469.96,2020-4-20T03:35:29Z
2020-04-20T01:37:52Z,42.805,6.029,13.2986,4.59982,2469.96,2020-4-20T03:38:32Z
2020-04-20T01:40:55Z,42.805,6.029,13.2993,4.60007,2469.984,2020-4-20T03:41:35Z
2020-04-20T01:43:58Z,42.805,6.029,13.2982,4.60008,2469.97,2020-4-20T03:44:38Z
2020-04-20T01:47:02Z,42.805,6.029,13.2990,4.60024,2469.947,2020-4-20T03:47:41Z
2020-04-20T01:50:05Z,42.805,6.029,13.2996,4.59990,2469.97,2020-4-20T03:50:45Z
2020-04-20T01:53:08Z,42.805,6.029,13.3000,4.60017,2469.984,2020-4-20T03:53:48Z
2020-04-20T01:56:11Z,42.805,6.029,13.3009,4.59992,2469.947,2020-4-20T03:56:51Z
2020-04-20T01:59:15Z,42.805,6.029,13.2985,4.60012,2469.984,2020-4-20T03:59:54Z
2020-04-20T02:02:18Z,42.805,6.029,13.2987,4.60003,2469.97,2020-4-20T04:02:58Z
2020-04-20T02:05:21Z,42.805,6.029,13.2984,4.60005,2469.97,2020-4-20T04:06:01Z
2020-04-20T02:08:24Z,42.805,6.029,13.2987,4.59998,2469.96,2020-4-20T04:09:04Z
2020-04-20T02:11:27Z,42.805,6.029,13.2984,4.59992,2469.993,2020-4-20T04:12:07Z
2020-04-20T02:14:31Z,42.805,6.029,13.2993,4.60019,2469.993,2020-4-20T04:15:11Z
2020-04-20T02:17:34Z,42.805,6.029,13.2993,4.60025,2469.984,2020-4-20T04:18:14Z
2020-04-20T02:20:37Z,42.805,6.029,13.3006,4.60037,2469.997,2020-4-20T04:21:17Z
2020-04-20T02:23:40Z,42.805,6.029,13.2998,4.59991,2470.007,2020-4-20T04:24:20Z
2020-04-20T02:26:44Z,42.805,6.029,13.3000,4.59991,2470.017,2020-4-20T04:27:23Z
2020-04-20T02:29:47Z,42.805,6.029,13.2993,4.60021,2469.993,2020-4-20T04:30:27Z
2020-04-20T02:32:50Z,42.805,6.029,13.2989,4.60021,2469.984,2020-4-20T04:33:30Z
2020-04-20T02:35:53Z,42.805,6.029,13.2986,4.60029,2470.03,2020-4-20T04:36:33Z
2020-04-20T02:38:56Z,42.805,6.029,13.3006,4.60029,2469.993,2020-4-20T04:39:36Z
2020-04-20T02:42:00Z,42.805,6.029,13.3014,4.60016,2470.007,2020-4-20T04:42:40Z
2020-04-20T02:45:03Z,42.805,6.029,13.2980,4.60016,2470.007,2020-4-20T04:45:43Z
2020-04-20T02:48:06Z,42.805,6.029,13.2992,4.60003,2470.017,2020-4-20T04:48:46Z
2020-04-20T02:51:10Z,42.805,6.029,13.2986,4.60036,2470.053,2020-4-20T04:51:50Z
2020-04-20T02:54:13Z,42.805,6.029,13.2996,4.60043,2470.03,2020-4-20T04:54:53Z
2020-04-20T02:57:16Z,42.805,6.029,13.3006,4.60026,2470.03,2020-4-20T04:57:56Z
2020-04-20T03:00:19Z,42.805,6.029,13.2990,4.60038,2469.993,2020-4-20T05:00:59Z
2020-04-20T03:03:22Z,42.805,6.029,13.3001,4.60017,2470.017,2020-4-20T05:04:02Z
2020-04-20T03:06:26Z,42.805,6.029,13.3004,4.60028,2470.017,2020-4-20T05:07:06Z
2020-04-20T03:09:29Z,42.805,6.029,13.2983,4.60026,2470.04,2020-4-20T05:10:09Z
2020-04-20T03:12:32Z,42.805,6.029,13.3006,4.60029,2470.053,2020-4-20T05:13:12Z
2020-04-20T03:15:35Z,42.805,6.029,13.2989,4.60031,2470.04,2020-4-20T05:16:15Z
2020-04-20T03:18:39Z,42.805,6.029,13.2995,4.60011,2470.017,2020-4-20T05:19:18Z
2020-04-20T03:21:42Z,42.805,6.029,13.2996,4.60025,2470.063,2020-4-20T05:22:22Z
2020-04-20T03:24:45Z,42.805,6.029,13.2998,4.60024,2470.04,2020-4-20T05:25:25Z
2020-04-20T03:27:48Z,42.805,6.029,13.3001,4.60026,2470.04,2020-4-20T05:28:28Z
2020-04-20T03:30:52Z,42.805,6.029,13.2993,4.59996,2470.04,2020-4-20T05:31:32Z
2020-04-20T03:33:55Z,42.805,6.029,13.2986,4.60028,2470.063,2020-4-20T05:34:35Z
2020-04-20T03:36:58Z,42.805,6.029,13.3004,4.60036,2470.063,2020-4-20T05:37:38Z
2020-04-20T03:40:01Z,42.805,6.029,13.2992,4.60033,2470.017,2020-4-20T05:40:41Z
2020-04-20T03:43:05Z,42.805,6.029,13.2986,4.60022,2470.04,2020-4-20T05:43:44Z
2020-04-20T03:46:08Z,42.805,6.029,13.2981,4.60028,2470.063,2020-4-20T05:46:48Z
2020-04-20T03:49:11Z,42.805,6.029,13.2978,4.60026,2470.077,2020-4-20T05:49:51Z
2020-04-20T03:52:14Z,42.805,6.029,13.2976,4.60013,2470.1,2020-4-20T05:52:54Z
2020-04-20T03:55:18Z,42.805,6.029,13.2974,4.59997,2470.077,2020-4-20T05:55:57Z
2020-04-20T03:58:21Z,42.805,6.029,13.2996,4.60015,2470.077,2020-4-20T05:59:01Z
2020-04-20T04:01:24Z,42.805,6.029,13.2987,4.60016,2470.1,2020-4-20T06:02:04Z
2020-04-20T04:04:27Z,42.805,6.029,13.2985,4.60014,2470.063,2020-4-20T06:05:07Z
2020-04-20T04:07:30Z,42.805,6.029,13.2989,4.60017,2470.063,2020-4-20T06:08:10Z
2020-04-20T04:10:34Z,42.805,6.029,13.2991,4.60029,2470.053,2020-4-20T06:11:14Z
2020-04-20T04:13:37Z,42.805,6.029,13.2997,4.60028,2470.1,2020-4-20T06:14:17Z
2020-04-20T04:16:40Z,42.805,6.029,13.2994,4.60021,2470.063,2020-4-20T06:17:20Z
2020-04-20T04:19:44Z,42.805,6.029,13.2998,4.60011,2470.063,2020-4-20T06:20:24Z
2020-04-20T04:22:47Z,42.805,6.029,13.2977,4.59999,2470.077,2020-4-20T06:23:27Z
2020-04-20T04:25:50Z,42.805,6.029,13.2979,4.60022,2470.1,2020-4-20T06:26:30Z
2020-04-20T04:28:53Z,42.805,6.029,13.2981,4.60024,2470.063,2020-4-20T06:29:33Z
2020-04-20T04:31:57Z,42.805,6.029,13.2998,4.60006,2470.077,2020-4-20T06:32:37Z
2020-04-20T04:35:00Z,42.805,6.029,13.2986,4.60021,2470.11,2020-4-20T06:35:40Z
2020-04-20T04:38:03Z,42.805,6.029,13.2988,4.60016,2470.124,2020-4-20T06:38:43Z
2020-04-20T04:41:07Z,42.805,6.029,13.3004,4.60029,2470.077,2020-4-20T06:41:46Z
2020-04-20T04:44:10Z,42.805,6.029,13.2991,4.60024,2470.11,2020-4-20T06:44:50Z
2020-04-20T04:47:13Z,42.805,6.029,13.2988,4.60028,2470.124,2020-4-20T06:47:53Z
2020-04-20T04:50:16Z,42.805,6.029,13.2996,4.60026,2470.1,2020-4-20T06:50:56Z
2020-04-20T04:53:20Z,42.805,6.029,13.2980,4.60011,2470.124,2020-4-20T06:54:00Z
2020-04-20T04:56:23Z,42.805,6.029,13.2981,4.60000,2470.063,2020-4-20T06:57:03Z
2020-04-20T04:59:26Z,42.805,6.029,13.2986,4.60014,2470.133,2020-4-20T07:00:06Z
2020-04-20T05:02:29Z,42.805,6.029,13.2993,4.60021,2470.133,2020-4-20T07:03:09Z
2020-04-20T05:05:33Z,42.805,6.029,13.2992,4.60016,2470.077,2020-4-20T07:06:13Z
2020-04-20T05:08:36Z,42.805,6.029,13.2981,4.60008,2470.087,2020-4-20T07:09:16Z
2020-04-20T05:11:39Z,42.805,6.029,13.2976,4.60003,2470.11,2020-4-20T07:12:19Z
2020-04-20T05:14:42Z,42.805,6.029,13.2994,4.60009,2470.11,2020-4-20T07:15:22Z
2020-04-20T05:17:45Z,42.805,6.029,13.3005,4.60021,2470.133,2020-4-20T07:18:25Z
2020-04-20T05:20:49Z,42.805,6.029,13.2989,4.60014,2470.1,2020-4-20T07:21:29Z
2020-04-20T05:23:52Z,42.805,6.029,13.2983,4.60006,2470.147,2020-4-20T07:24:32Z
2020-04-20T05:26:55Z,42.805,6.029,13.2977,4.59991,2470.1,2020-4-20T07:27:35Z
2020-04-20T05:29:59Z,42.805,6.029,13.2984,4.59987,2470.11,2020-4-20T07:30:39Z
2020-04-20T05:33:02Z,42.805,6.029,13.2972,4.59993,2470.11,2020-4-20T07:33:42Z
2020-04-20T05:36:05Z,42.805,6.029,13.2975,4.59996,2470.124,2020-4-20T07:36:45Z
2020-04-20T05:39:08Z,42.805,6.029,13.2988,4.59994,2470.053,2020-4-20T07:39:48Z
2020-04-20T05:42:12Z,42.805,6.029,13.2989,4.60014,2470.11,2020-4-20T07:42:52Z
2020-04-20T05:45:15Z,42.805,6.029,13.2973,4.59990,2470.11,2020-4-20T07:45:55Z
2020-04-20T05:48:18Z,42.805,6.029,13.2973,4.59988,2470.11,2020-4-20T07:48:58Z
2020-04-20T05:51:21Z,42.805,6.029,13.2971,4.59983,2470.096,2020-4-20T07:52:01Z
2020-04-20T05:54:25Z,42.805,6.029,13.2971,4.59991,2470.124,2020-4-20T07:55:05Z
2020-04-20T05:57:28Z,42.805,6.029,13.2974,4.59985,2470.147,2020-4-20T07:58:08Z
2020-04-20T06:00:31Z,42.805,6.029,13.2968,4.59993,2470.087,2020-4-20T08:01:11Z
2020-04-20T06:03:34Z,42.805,6.029,13.2990,4.60015,2470.1,2020-4-20T08:04:14Z
2020-04-20T06:06:38Z,42.805,6.029,13.2983,4.60016,2470.11,2020-4-20T08:07:18Z
2020-04-20T06:09:41Z,42.805,6.029,13.2989,4.60031,2470.11,2020-4-20T08:10:21Z
2020-04-20T06:12:44Z,42.805,6.029,13.2992,4.60024,2470.11,2020-4-20T08:13:24Z
2020-04-20T06:15:47Z,42.805,6.029,13.2994,4.60012,2470.11,2020-4-20T08:16:27Z
2020-04-20T06:18:51Z,42.805,6.029,13.2993,4.60027,2470.147,2020-4-20T08:19:31Z
2020-04-20T06:21:54Z,42.805,6.029,13.2998,4.60023,2470.1,2020-4-20T08:22:34Z
2020-04-20T06:24:57Z,42.805,6.029,13.2987,4.60041,2470.124,2020-4-20T08:25:37Z
2020-04-20T06:28:00Z,42.805,6.029,13.2984,4.60016,2470.087,2020-4-20T08:28:40Z
2020-04-20T06:31:03Z,42.805,6.029,13.2989,4.60025,2470.11,2020-4-20T08:31:43Z
2020-04-20T06:34:07Z,42.805,6.029,13.2971,4.60015,2470.147,2020-4-20T08:34:47Z
2020-04-20T06:37:10Z,42.805,6.029,13.2990,4.60018,2470.1,2020-4-20T08:37:50Z
2020-04-20T06:40:13Z,42.805,6.029,13.2993,4.60002,2470.124,2020-4-20T08:40:53Z
2020-04-20T06:43:17Z,42.805,6.029,13.2987,4.60017,2470.11,2020-4-20T08:43:57Z
2020-04-20T06:46:20Z,42.805,6.029,13.2986,4.60021,2470.124,2020-4-20T08:47:00Z
2020-04-20T06:49:23Z,42.805,6.029,13.2994,4.60027,2470.147,2020-4-20T08:50:03Z
2020-04-20T06:52:26Z,42.805,6.029,13.2980,4.60013,2470.11,2020-4-20T08:53:06Z
2020-04-20T06:55:30Z,42.805,6.029,13.2981,4.60010,2470.124,2020-4-20T08:56:10Z
2020-04-20T06:58:33Z,42.805,6.029,13.3002,4.60010,2470.11,2020-4-20T08:59:13Z
2020-04-20T07:01:36Z,42.805,6.029,13.2987,4.60017,2470.133,2020-4-20T09:02:16Z
2020-04-20T07:04:40Z,42.805,6.029,13.2974,4.60004,2470.147,2020-4-20T09:05:19Z
2020-04-20T07:07:43Z,42.805,6.029,13.2984,4.60014,2470.087,2020-4-20T09:08:23Z
2020-04-20T07:10:47Z,42.805,6.029,13.2998,4.60021,2470.124,2020-4-20T09:11:26Z
2020-04-20T07:13:50Z,42.805,6.029,13.2987,4.60031,2470.147,2020-4-20T09:14:30Z
2020-04-20T07:16:53Z,42.805,6.029,13.2988,4.60023,2470.147,2020-4-20T09:17:33Z
2020-04-20T07:19:56Z,42.805,6.029,13.2986,4.60015,2470.11,2020-4-20T09:20:36Z
2020-04-20T07:22:59Z,42.805,6.029,13.2995,4.60029,2470.133,2020-4-20T09:23:39Z
2020-04-20T07:26:03Z,42.805,6.029,13.2985,4.60026,2470.133,2020-4-20T09:26:43Z
2020-04-20T07:29:06Z,42.805,6.029,13.2998,4.60023,2470.087,2020-4-20T09:29:46Z
2020-04-20T07:32:09Z,42.805,6.029,13.2991,4.60025,2470.11,2020-4-20T09:32:49Z
2020-04-20T07:35:12Z,42.805,6.029,13.2991,4.60016,2470.11,2020-4-20T09:35:52Z
2020-04-20T07:38:16Z,42.805,6.029,13.2998,4.60005,2470.147,2020-4-20T09:38:56Z
2020-04-20T07:41:19Z,42.805,6.029,13.2982,4.60020,2470.087,2020-4-20T09:41:59Z
2020-04-20T07:44:22Z,42.805,6.029,13.2991,4.60021,2470.087,2020-4-20T09:45:02Z
2020-04-20T07:47:25Z,42.805,6.029,13.2990,4.60026,2470.138,2020-4-20T09:48:05Z
2020-04-20T07:50:29Z,42.805,6.029,13.2986,4.60014,2470.11,2020-4-20T09:51:08Z
2020-04-20T07:53:32Z,42.805,6.029,13.2998,4.60010,2470.124,2020-4-20T09:54:12Z
2020-04-20T07:56:35Z,42.805,6.029,13.2996,4.60019,2470.133,2020-4-20T09:57:15Z
2020-04-20T07:59:38Z,42.805,6.029,13.3001,4.60021,2470.124,2020-4-20T10:00:18Z
2020-04-20T08:02:42Z,42.805,6.029,13.2990,4.60012,2470.087,2020-4-20T10:03:22Z
2020-04-20T08:05:45Z,42.805,6.029,13.2984,4.60011,2470.11,2020-4-20T10:06:25Z
2020-04-20T08:08:48Z,42.805,6.029,13.2979,4.60024,2470.087,2020-4-20T10:09:28Z
2020-04-20T08:11:51Z,42.805,6.029,13.2993,4.60022,2470.1,2020-4-20T10:12:31Z
2020-04-20T08:14:55Z,42.805,6.029,13.3001,4.60017,2470.087,2020-4-20T10:15:34Z
2020-04-20T08:17:58Z,42.805,6.029,13.2995,4.60026,2470.087,2020-4-20T10:18:38Z
2020-04-20T08:21:01Z,42.805,6.029,13.3005,4.60019,2470.087,2020-4-20T10:21:41Z
2020-04-20T08:24:04Z,42.805,6.029,13.2998,4.60015,2470.087,2020-4-20T10:24:44Z
2020-04-20T08:27:08Z,42.805,6.029,13.2996,4.60026,2470.11,2020-4-20T10:27:48Z
2020-04-20T08:30:11Z,42.805,6.029,13.2997,4.60013,2470.04,2020-4-20T10:30:51Z
2020-04-20T08:33:14Z,42.805,6.029,13.2992,4.60024,2470.063,2020-4-20T10:33:54Z
2020-04-20T08:36:17Z,42.805,6.029,13.3000,4.60045,2470.124,2020-4-20T10:36:57Z
2020-04-20T08:39:20Z,42.805,6.029,13.3001,4.60015,2470.077,2020-4-20T10:40:00Z
2020-04-20T08:42:24Z,42.805,6.029,13.2990,4.60034,2470.1,2020-4-20T10:43:04Z
2020-04-20T08:45:27Z,42.805,6.029,13.3001,4.60008,2470.077,2020-4-20T10:46:07Z
2020-04-20T08:48:30Z,42.805,6.029,13.2986,4.60026,2470.04,2020-4-20T10:49:10Z
2020-04-20T08:51:33Z,42.805,6.029,13.2980,4.60019,2470.063,2020-4-20T10:52:13Z
2020-04-20T08:54:37Z,42.805,6.029,13.2995,4.60037,2470.063,2020-4-20T10:55:17Z
2020-04-20T08:57:40Z,42.805,6.029,13.2993,4.60043,2470.1,2020-4-20T10:58:20Z
2020-04-20T09:00:43Z,42.805,6.029,13.2984,4.60018,2470.053,2020-4-20T11:01:23Z
2020-04-20T09:03:46Z,42.805,6.029,13.2984,4.59996,2470.087,2020-4-20T11:04:26Z
2020-04-20T09:06:50Z,42.805,6.029,13.2999,4.60033,2470.04,2020-4-20T11:07:30Z
2020-04-20T09:09:53Z,42.805,6.029,13.2986,4.60028,2470.063,2020-4-20T11:10:33Z
2020-04-20T09:12:56Z,42.805,6.029,13.2982,4.60011,2470.053,2020-4-20T11:13:36Z
2020-04-20T09:15:59Z,42.805,6.029,13.2994,4.60038,2470.053,2020-4-20T11:16:39Z
2020-04-20T09:19:03Z,42.805,6.029,13.2994,4.60019,2470.053,2020-4-20T11:19:43Z
2020-04-20T09:22:06Z,42.805,6.029,13.2995,4.60027,2470.053,2020-4-20T11:22:46Z
2020-04-20T09:25:09Z,42.805,6.029,13.2996,4.60019,2470.063,2020-4-20T11:25:49Z
2020-04-20T09:28:12Z,42.805,6.029,13.2982,4.60020,2470.053,2020-4-20T11:28:52Z
2020-04-20T09:31:16Z,42.805,6.029,13.2996,4.59988,2470.04,2020-4-20T11:31:55Z
2020-04-20T09:34:19Z,42.805,6.029,13.2976,4.60000,2470.053,2020-4-20T11:34:59Z
2020-04-20T09:37:22Z,42.805,6.029,13.2982,4.59997,2470.04,2020-4-20T11:38:02Z
2020-04-20T09:40:26Z,42.805,6.029,13.2988,4.59990,2470.04,2020-4-20T11:41:05Z
2020-04-20T09:43:29Z,42.805,6.029,13.2989,4.59995,2470.04,2020-4-20T11:44:09Z
2020-04-20T09:46:32Z,42.805,6.029,13.2982,4.59996,2470.063,2020-4-20T11:47:12Z
2020-04-20T09:49:35Z,42.805,6.029,13.2980,4.59983,2470.017,2020-4-20T11:50:15Z
2020-04-20T09:52:38Z,42.805,6.029,13.2984,4.60019,2470.03,2020-4-20T11:53:18Z
2020-04-20T09:55:42Z,42.805,6.029,13.2989,4.59995,2470.017,2020-4-20T11:56:22Z
2020-04-20T09:58:45Z,42.805,6.029,13.2996,4.60007,2469.993,2020-4-20T11:59:25Z
2020-04-20T10:01:48Z,42.805,6.029,13.3004,4.59987,2469.993,2020-4-20T12:02:28Z
2020-04-20T10:04:52Z,42.805,6.029,13.2982,4.59989,2470.017,2020-4-20T12:05:32Z
2020-04-20T10:07:55Z,42.805,6.029,13.2994,4.59982,2470.017,2020-4-20T12:08:35Z
2020-04-20T10:10:58Z,42.805,6.029,13.2976,4.59994,2469.993,2020-4-20T12:11:38Z
2020-04-20T10:14:01Z,42.805,6.029,13.2986,4.59976,2469.993,2020-4-20T12:14:41Z
2020-04-20T10:17:05Z,42.805,6.029,13.2976,4.59997,2469.984,2020-4-20T12:17:45Z
2020-04-20T10:20:08Z,42.805,6.029,13.2982,4.59983,2470.007,2020-4-20T12:20:48Z
2020-04-20T10:23:11Z,42.805,6.029,13.2984,4.59991,2470.017,2020-4-20T12:23:51Z
2020-04-20T10:26:14Z,42.805,6.029,13.2975,4.59974,2470.007,2020-4-20T12:26:54Z
2020-04-20T10:29:18Z,42.805,6.029,13.2980,4.59992,2469.96,2020-4-20T12:29:58Z
2020-04-20T10:32:21Z,42.805,6.029,13.2990,4.59994,2469.97,2020-4-20T12:33:01Z
2020-04-20T10:35:24Z,42.805,6.029,13.2993,4.59981,2469.984,2020-4-20T12:36:04Z
2020-04-20T10:38:27Z,42.805,6.029,13.2974,4.59981,2469.984,2020-4-20T12:39:07Z
2020-04-20T10:41:31Z,42.805,6.029,13.2979,4.59974,2469.956,2020-4-20T12:42:11Z
2020-04-20T10:44:34Z,42.805,6.029,13.2995,4.59978,2469.947,2020-4-20T12:45:14Z
2020-04-20T10:47:38Z,42.805,6.029,13.2970,4.59981,2469.97,2020-4-20T12:48:18Z
2020-04-20T10:50:41Z,42.805,6.029,13.2974,4.59981,2469.984,2020-4-20T12:51:21Z
2020-04-20T10:53:44Z,42.805,6.029,13.2974,4.59991,2469.984,2020-4-20T12:54:24Z
2020-04-20T10:56:47Z,42.805,6.029,13.2984,4.59980,2469.96,2020-4-20T12:57:27Z
2020-04-20T10:59:51Z,42.805,6.029,13.2974,4.59986,2470.007,2020-4-20T13:00:30Z
2020-04-20T11:02:54Z,42.805,6.029,13.2976,4.59989,2469.97,2020-4-20T13:03:34Z
2020-04-20T11:05:57Z,42.805,6.029,13.2974,4.59985,2469.984,2020-4-20T13:06:37Z
2020-04-20T11:09:00Z,42.805,6.029,13.2982,4.59986,2469.947,2020-4-20T13:09:40Z
2020-04-20T11:12:03Z,42.805,6.029,13.2975,4.59990,2469.97,2020-4-20T13:12:43Z
2020-04-20T11:15:07Z,42.805,6.029,13.2974,4.59992,2469.947,2020-4-20T13:15:47Z
2020-04-20T11:18:10Z,42.805,6.029,13.2983,4.59976,2469.96,2020-4-20T13:18:50Z
2020-04-20T11:21:13Z,42.805,6.029,13.2979,4.59989,2469.947,2020-4-20T13:21:53Z
2020-04-20T11:24:16Z,42.805,6.029,13.2982,4.59995,2469.984,2020-4-20T13:24:56Z
2020-04-20T11:27:20Z,42.805,6.029,13.2985,4.59985,2469.947,2020-4-20T13:28:00Z
2020-04-20T11:30:23Z,42.805,6.029,13.2986,4.59981,2469.947,2020-4-20T13:31:03Z
2020-04-20T11:33:26Z,42.805,6.029,13.2981,4.59980,2469.923,2020-4-20T13:34:06Z
2020-04-20T11:36:29Z,42.805,6.029,13.2986,4.59985,2469.96,2020-4-20T13:37:09Z
2020-04-20T11:39:33Z,42.805,6.029,13.2986,4.59991,2469.923,2020-4-20T13:40:13Z
2020-04-20T11:42:36Z,42.805,6.029,13.2990,4.59993,2469.947,2020-4-20T13:43:16Z
2020-04-20T11:45:39Z,42.805,6.029,13.2983,4.59980,2469.947,2020-4-20T13:46:19Z
2020-04-20T11:48:42Z,42.805,6.029,13.2991,4.59985,2469.96,2020-4-20T13:49:22Z
2020-04-20T11:51:46Z,42.805,6.029,13.2977,4.59982,2469.923,2020-4-20T13:52:26Z
2020-04-20T11:54:49Z,42.805,6.029,13.2981,4.59983,2469.96,2020-4-20T13:55:29Z
2020-04-20T11:57:52Z,42.805,6.029,13.2989,4.59986,2469.923,2020-4-20T13:58:32Z
2020-04-20T12:00:55Z,42.805,6.029,13.2983,4.59980,2469.923,2020-4-20T14:01:35Z
2020-04-20T12:03:59Z,42.805,6.029,13.2993,4.59979,2469.947,2020-4-20T14:04:39Z
2020-04-20T12:07:02Z,42.805,6.029,13.2987,4.59994,2469.947,2020-4-20T14:07:42Z
2020-04-20T12:10:05Z,42.805,6.029,13.2981,4.59983,2469.923,2020-4-20T14:10:45Z
2020-04-20T12:13:08Z,42.805,6.029,13.2978,4.59987,2469.923,2020-4-20T14:13:48Z
2020-04-20T12:16:12Z,42.805,6.029,13.2992,4.59985,2469.9,2020-4-20T14:16:52Z
2020-04-20T12:19:15Z,42.805,6.029,13.2975,4.59995,2469.923,2020-4-20T14:19:55Z
2020-04-20T12:22:18Z,42.805,6.029,13.2983,4.59988,2469.947,2020-4-20T14:22:58Z
2020-04-20T12:25:21Z,42.805,6.029,13.2991,4.59986,2469.923,2020-4-20T14:26:01Z
2020-04-20T12:28:25Z,42.805,6.029,13.2987,4.59986,2469.937,2020-4-20T14:29:05Z
2020-04-20T12:31:28Z,42.805,6.029,13.2976,4.59988,2469.947,2020-4-20T14:32:08Z
2020-04-20T12:34:31Z,42.805,6.029,13.2982,4.59985,2469.923,2020-4-20T14:35:11Z
2020-04-20T12:37:34Z,42.805,6.029,13.2980,4.59982,2469.937,2020-4-20T14:38:14Z
2020-04-20T12:40:38Z,42.805,6.029,13.2975,4.59982,2469.937,2020-4-20T14:41:18Z
2020-04-20T12:43:41Z,42.805,6.029,13.2984,4.59991,2469.923,2020-4-20T14:44:21Z
2020-04-20T12:46:44Z,42.805,6.029,13.2982,4.59981,2469.923,2020-4-20T14:47:24Z
2020-04-20T12:49:47Z,42.805,6.029,13.2979,4.59993,2469.947,2020-4-20T14:50:27Z
2020-04-20T12:52:51Z,42.805,6.029,13.2984,4.59986,2469.937,2020-4-20T14:53:31Z
2020-04-20T12:55:54Z,42.805,6.029,13.2977,4.59981,2469.96,2020-4-20T14:56:34Z
2020-04-20T12:58:57Z,42.805,6.029,13.2982,4.59996,2469.923,2020-4-20T14:59:37Z
2020-04-20T13:02:00Z,42.805,6.029,13.2987,4.59995,2469.914,2020-4-20T15:02:40Z
2020-04-20T13:05:04Z,42.805,6.029,13.2979,4.59986,2469.923,2020-4-20T15:05:44Z
2020-04-20T13:08:07Z,42.805,6.029,13.2984,4.59981,2469.9,2020-4-20T15:08:47Z
2020-04-20T13:11:10Z,42.805,6.029,13.2996,4.59983,2469.9,2020-4-20T15:11:50Z
2020-04-20T13:14:13Z,42.805,6.029,13.2986,4.59987,2469.923,2020-4-20T15:14:53Z
2020-04-20T13:17:17Z,42.805,6.029,13.2989,4.59993,2469.923,2020-4-20T15:17:57Z
2020-04-20T13:20:20Z,42.805,6.029,13.2996,4.59991,2469.923,2020-4-20T15:21:00Z
2020-04-20T13:23:23Z,42.805,6.029,13.2986,4.59996,2469.937,2020-4-20T15:24:03Z
2020-04-20T13:26:26Z,42.805,6.029,13.2980,4.59975,2469.923,2020-4-20T15:27:06Z
2020-04-20T13:29:29Z,42.805,6.029,13.2989,4.59984,2469.947,2020-4-20T15:30:09Z
2020-04-20T13:32:33Z,42.805,6.029,13.2990,4.59990,2469.923,2020-4-20T15:33:13Z
2020-04-20T13:35:36Z,42.805,6.029,13.2989,4.59982,2469.96,2020-4-20T15:36:16Z
2020-04-20T13:38:39Z,42.805,6.029,13.2982,4.59982,2469.923,2020-4-20T15:39:19Z
2020-04-20T13:41:43Z,42.805,6.029,13.2982,4.59989,2469.914,2020-4-20T15:42:23Z
2020-04-20T13:44:46Z,42.805,6.029,13.2984,4.59985,2469.96,2020-4-20T15:45:26Z
2020-04-20T13:47:49Z,42.805,6.029,13.2990,4.59990,2469.96,2020-4-20T15:48:29Z
2020-04-20T13:50:52Z,42.805,6.029,13.2981,4.59986,2469.96,2020-4-20T15:51:32Z
2020-04-20T13:53:56Z,42.805,6.029,13.2993,4.59983,2469.96,2020-4-20T15:54:36Z
2020-04-20T13:56:59Z,42.805,6.029,13.2996,4.59983,2469.947,2020-4-20T15:57:39Z
2020-04-20T14:00:02Z,42.805,6.029,13.2989,4.59999,2469.97,2020-4-20T16:00:42Z
2020-04-20T14:03:06Z,42.805,6.029,13.2995,4.59996,2469.97,2020-4-20T16:03:46Z
2020-04-20T14:06:09Z,42.805,6.029,13.2991,4.59996,2469.947,2020-4-20T16:06:49Z
2020-04-20T14:09:12Z,42.805,6.029,13.2990,4.59999,2469.947,2020-4-20T16:09:52Z
2020-04-20T14:12:15Z,42.805,6.029,13.2986,4.60007,2469.97,2020-4-20T16:12:55Z
2020-04-20T14:15:19Z,42.805,6.029,13.2985,4.59983,2469.923,2020-4-20T16:15:59Z
2020-04-20T14:18:22Z,42.805,6.029,13.2990,4.59990,2469.96,2020-4-20T16:19:02Z
2020-04-20T14:21:25Z,42.805,6.029,13.2984,4.59995,2469.984,2020-4-20T16:22:05Z
2020-04-20T14:24:28Z,42.805,6.029,13.2984,4.60001,2469.984,2020-4-20T16:25:08Z
2020-04-20T14:27:32Z,42.805,6.029,13.2982,4.59982,2469.97,2020-4-20T16:28:12Z
2020-04-20T14:30:35Z,42.805,6.029,13.2988,4.59991,2469.96,2020-4-20T16:31:15Z
2020-04-20T14:33:38Z,42.805,6.029,13.2994,4.59993,2469.984,2020-4-20T16:34:18Z
2020-04-20T14:36:41Z,42.805,6.029,13.2996,4.59999,2469.993,2020-4-20T16:37:21Z
2020-04-20T14:39:44Z,42.805,6.029,13.3002,4.59991,2469.937,2020-4-20T16:40:24Z
2020-04-20T14:42:48Z,42.805,6.029,13.2976,4.59995,2469.947,2020-4-20T16:43:28Z
2020-04-20T14:45:51Z,42.805,6.029,13.2993,4.59987,2469.984,2020-4-20T16:46:31Z
2020-04-20T14:48:54Z,42.805,6.029,13.2987,4.59991,2469.993,2020-4-20T16:49:34Z
2020-04-20T14:51:58Z,42.805,6.029,13.2987,4.59986,2470.007,2020-4-20T16:52:37Z
2020-04-20T14:55:01Z,42.805,6.029,13.2989,4.60003,2469.984,2020-4-20T16:55:41Z
2020-04-20T14:58:04Z,42.805,6.029,13.2986,4.59999,2469.984,2020-4-20T16:58:44Z
2020-04-20T15:01:07Z,42.805,6.029,13.2983,4.59996,2470.007,2020-4-20T17:01:47Z
2020-04-20T15:04:11Z,42.805,6.029,13.2993,4.59981,2470.007,2020-4-20T17:04:51Z
2020-04-20T15:07:14Z,42.805,6.029,13.2985,4.59990,2469.993,2020-4-20T17:07:54Z
2020-04-20T15:10:17Z,42.805,6.029,13.2983,4.59986,2470.007,2020-4-20T17:10:57Z
2020-04-20T15:13:20Z,42.805,6.029,13.3006,4.59983,2470.017,2020-4-20T17:14:00Z